Weather History for KCKM - December, 2013

Change the Weather History Date:

Thursday, December 26, 2013

  Actual Average (KMEM) Record (KMEM)
Temperature  
Mean Temperature 40 °F 42 °F  
Max Temperature 48 °F 50 °F 74 °F (1889)
Min Temperature 32 °F 33 °F 9 °F (1983)
Degree Days  
Heating Degree Days 25 23  
Month to date heating degree days 548  
Since 1 July heating degree days 1047  
Cooling Degree Days 0 0  
Month to date cooling degree days 0  
Year to date cooling degree days 2256  
Moisture  
Dew Point 32 °F    
Average Humidity 82    
Maximum Humidity 100    
Minimum Humidity 54    
Precipitation  
Precipitation 0.00 in 0.17 in 3.91 in (1904)
Month to date precipitation 4.93  
Year to date precipitation 52.87  
Snow  
Snow 0.00 in 0.00 in 3.00 in (1894)
Month to date snowfall 0.1  
Since 1 July snowfall 0.1  
Snow Depth -    
Sea Level Pressure  
Sea Level Pressure 30.41 in    
Wind  
Wind Speed 0 mph (North)    
Max Wind Speed 0 mph    
Max Gust Speed -    
Visibility 10 miles    
Events      
T = Trace of Precipitation, MM = Missing Value Source: NWS Daily Summary

Daily Weather History Graph

Daily Weather History Graph

Search for Another Location

Airport or City:

Trip Planner

Search our weather history database for the weather conditions in past years. The results will help you decide how hot, cold, wet, or windy it might be!

Date:

Astronomy

Dec. 26, 2013 Rise Set
Actual Time 7:06 AM CST 4:59 PM CST
Civil Twilight 6:38 AM CST 5:26 PM CST
Nautical Twilight 6:07 AM CST 5:58 PM CST
Astronomical Twilight 5:36 AM CST 6:28 PM CST
Moon 12:46 AM CST (12/26) 12:24 PM CST (12/26)
Length of Visible Light 10h 48m
Length of Day
9h 52m
Last Quarter, 38% of the Moon is Illuminated
Dec 26
Last Quarter
Jan 1
New
Jan 7
First Quarter
Jan 15
Full
Jan 23
Last Quarter

Hourly Weather History & Observations

Time (CST) Temp. Dew Point Humidity Pressure Visibility Wind Dir Wind Speed Gust Speed Precip Events Conditions
12:15 AM 32.0 °F 32.0 °F 100% 30.38 in 10.0 mi Calm Calm - N/A   Clear
12:35 AM 33.8 °F 32.0 °F 93% 30.38 in 10.0 mi Calm Calm - N/A   Clear
12:55 AM 32.0 °F 32.0 °F 100% 30.38 in 10.0 mi Calm Calm - N/A   Clear
1:15 AM 32.0 °F 32.0 °F 100% 30.38 in 10.0 mi Calm Calm - N/A   Clear
1:35 AM 32.0 °F 32.0 °F 100% 30.38 in 10.0 mi Calm Calm - N/A   Clear
1:55 AM 32.0 °F 32.0 °F 100% 30.39 in 10.0 mi Calm Calm - N/A   Clear
2:15 AM 32.0 °F 32.0 °F 100% 30.39 in 10.0 mi Calm Calm - N/A   Clear
2:35 AM 32.0 °F 32.0 °F 100% 30.39 in 10.0 mi Calm Calm - N/A   Clear
2:55 AM 32.0 °F 32.0 °F 100% 30.39 in 10.0 mi Calm Calm - N/A   Clear
3:15 AM 32.0 °F 32.0 °F 100% 30.39 in 10.0 mi Calm Calm - N/A   Clear
3:35 AM 32.0 °F 32.0 °F 100% 30.39 in 10.0 mi Calm Calm - N/A   Clear
3:55 AM 33.8 °F 32.0 °F 93% 30.39 in 10.0 mi Calm Calm - N/A   Clear
4:15 AM 33.8 °F 32.0 °F 93% 30.39 in 10.0 mi Calm Calm - N/A   Clear
4:35 AM 33.8 °F 32.0 °F 93% 30.40 in 10.0 mi Calm Calm - N/A   Clear
4:55 AM 32.0 °F 30.2 °F 93% 30.40 in 10.0 mi Calm Calm - N/A   Clear
5:15 AM 33.8 °F 32.0 °F 93% 30.40 in 10.0 mi Calm Calm - N/A   Clear
5:35 AM 32.0 °F 32.0 °F 100% 30.41 in 10.0 mi Calm Calm - N/A   Clear
5:55 AM 32.0 °F 30.2 °F 93% 30.41 in 10.0 mi Calm Calm - N/A   Clear
6:15 AM 32.0 °F 30.2 °F 93% 30.42 in 10.0 mi Calm Calm - N/A   Clear
6:35 AM 32.0 °F 30.2 °F 93% 30.42 in 9.0 mi Calm Calm - N/A   Clear
6:55 AM 32.0 °F 30.2 °F 93% 30.42 in 10.0 mi Calm Calm - N/A   Clear
7:15 AM 32.0 °F 30.2 °F 93% 30.43 in 7.0 mi Calm Calm - N/A   Clear
7:35 AM 32.0 °F 30.2 °F 93% 30.43 in 5.0 mi Calm Calm - N/A   Clear
7:55 AM 32.0 °F 32.0 °F 100% 30.44 in 6.0 mi Calm Calm - N/A   Clear
8:15 AM 33.8 °F 32.0 °F 93% 30.45 in 7.0 mi Calm Calm - N/A   Clear
8:35 AM 35.6 °F 32.0 °F 87% 30.45 in 7.0 mi Calm Calm - N/A   Clear
8:55 AM 37.4 °F 32.0 °F 81% 30.45 in 8.0 mi Calm Calm - N/A   Clear
9:15 AM 37.4 °F 32.0 °F 81% 30.46 in 10.0 mi Calm Calm - N/A   Clear
9:35 AM 39.2 °F 32.0 °F 75% 30.47 in 10.0 mi Calm Calm - N/A   Clear
9:55 AM 39.2 °F 32.0 °F 75% 30.47 in 10.0 mi North - - N/A   Clear
10:15 AM 41.0 °F 32.0 °F 70% 30.47 in 10.0 mi North - - N/A   Clear
10:35 AM 41.0 °F 32.0 °F 70% 30.46 in 10.0 mi North - - N/A   Clear
10:55 AM 42.8 °F 32.0 °F 66% 30.46 in 10.0 mi North - - N/A   Clear
11:15 AM 42.8 °F 32.0 °F 66% 30.46 in 10.0 mi North - - N/A   Clear
11:35 AM 42.8 °F 32.0 °F 66% 30.45 in 10.0 mi North - - N/A   Clear
11:55 AM 44.6 °F 32.0 °F 61% 30.44 in 10.0 mi North - - N/A   Clear
12:15 PM 44.6 °F 32.0 °F 61% 30.44 in 10.0 mi North - - N/A   Clear
12:35 PM 44.6 °F 32.0 °F 61% 30.42 in 10.0 mi North - - N/A   Clear
12:55 PM 44.6 °F 32.0 °F 61% 30.41 in 10.0 mi North - - N/A   Clear
1:15 PM 46.4 °F 33.8 °F 62% 30.40 in 10.0 mi North - - N/A   Clear
1:35 PM 46.4 °F 33.8 °F 62% 30.39 in 10.0 mi North - - N/A   Clear
1:55 PM 46.4 °F 32.0 °F 57% 30.39 in 10.0 mi North - - N/A   Clear
2:15 PM 46.4 °F 32.0 °F 57% 30.38 in 10.0 mi North - - N/A   Clear
2:35 PM 46.4 °F 32.0 °F 57% 30.38 in 10.0 mi North - - N/A   Clear
2:55 PM 48.2 °F 32.0 °F 54% 30.38 in 10.0 mi North - - N/A   Clear
3:15 PM 46.4 °F 32.0 °F 57% 30.38 in 10.0 mi North - - N/A   Clear
3:35 PM 46.4 °F 32.0 °F 57% 30.38 in 10.0 mi North - - N/A   Clear
3:55 PM 46.4 °F 32.0 °F 57% 30.38 in 10.0 mi North - - N/A   Clear
4:15 PM 46.4 °F 32.0 °F 57% 30.38 in 10.0 mi North - - N/A   Unknown
4:35 PM 44.6 °F 32.0 °F 61% 30.38 in 10.0 mi North - - N/A   Clear
4:55 PM 42.8 °F 32.0 °F 66% 30.39 in 10.0 mi North - - N/A   Clear
5:15 PM 41.0 °F 35.6 °F 81% 30.39 in 10.0 mi North - - N/A   Clear
5:35 PM 41.0 °F 35.6 °F 81% 30.40 in 10.0 mi North - - N/A   Clear
5:55 PM 39.2 °F 33.8 °F 81% 30.40 in 10.0 mi North - - N/A   Clear
6:15 PM 39.2 °F 33.8 °F 81% 30.40 in 10.0 mi North - - N/A   Clear
6:35 PM 37.4 °F 32.0 °F 81% 30.40 in 10.0 mi North - - N/A   Clear
6:55 PM 39.2 °F 32.0 °F 75% 30.41 in 10.0 mi North - - N/A   Clear
7:15 PM 37.4 °F 32.0 °F 81% 30.41 in 10.0 mi North - - N/A   Clear
7:35 PM 37.4 °F 32.0 °F 81% 30.41 in 10.0 mi North - - N/A   Clear
7:55 PM 35.6 °F 32.0 °F 87% 30.41 in 10.0 mi North - - N/A   Clear
8:15 PM 37.4 °F 32.0 °F 81% 30.41 in 10.0 mi North - - N/A   Clear
8:35 PM 35.6 °F 32.0 °F 87% 30.42 in 10.0 mi North - - N/A   Clear
8:55 PM 35.6 °F 32.0 °F 87% 30.41 in 10.0 mi North - - N/A   Clear
9:15 PM 33.8 °F 32.0 °F 93% 30.41 in 10.0 mi North - - N/A   Clear
9:35 PM 33.8 °F 32.0 °F 93% 30.41 in 10.0 mi North - - N/A   Clear
9:55 PM 32.0 °F 32.0 °F 100% 30.41 in 10.0 mi North - - N/A   Clear
10:15 PM 32.0 °F 30.2 °F 93% 30.42 in 10.0 mi North - - N/A   Clear
10:35 PM 32.0 °F 32.0 °F 100% 30.42 in 10.0 mi North - - N/A   Clear
10:55 PM 32.0 °F 30.2 °F 93% 30.42 in 10.0 mi North - - N/A   Clear
11:15 PM 32.0 °F 32.0 °F 100% 30.42 in 10.0 mi North - - N/A   Clear
11:35 PM 32.0 °F 30.2 °F 93% 30.43 in 10.0 mi North - - N/A   Clear
11:55 PM 32.0 °F 30.2 °F 93% 30.42 in 10.0 mi North - - N/A   Clear